sat.trackr.live / text

‹ back to catalog

STARLINK-1296

NORAD 45412 · 2020-019BE

PAYLOAD ACTIVE UNKNOWN

§ Identity

Operator
Country
US
Launch date
2020-03-18
Launch site
AFETR
Launch vehicle
Mass (kg)
RCS (m²)

Purposes: comms

External: N2YO · Heavens-Above · Gunter

§ Orbital elements

Epoch: 2026-05-25T03:21:38.433024Z

Period
93.70 min
Inclination
53.1554°
Eccentricity
0.0006417
Mean motion
15.36833004 rev/d
Perigee alt
451.1 km
Apogee alt
459.9 km
Semi-major
6,833.6 km
B*
1.2786e-3
RAAN
132.3041°
Arg perigee
28.5689°
Mean anomaly
331.5665°
Rev number
34,170

§ Raw data

STARLINK-12961 45412U 20019BE  26145.14002816  .00046627  00000+0  12786-2 0  99982 45412  53.1554 132.3041 0006417  28.5689 331.5665 15.36833004341708

JSON: /api/v1/satellites/45412 · /tle

For live sub-satellite position, see the globe view (requires WebGL).

§ Visibility from observer

Set your observer location to see the next 7 days of passes ≥ 10°. The values pass through the URL so the page stays shareable.

No JS? Fill the form by hand. The geolocation button needs JavaScript.